Location: ČR
(50.0000°N, 15.0000°E)
Time: 07:07:03
(UTC+01:00)

Vanguard 3 - Visible Passes

Search period start: 16 January 2026 00:00
Search period end: 26 January 2026 00:00
Orbit: 507 x 3207 km, 33.4° (Epoch: 15 January)

Date Brightness Start Highest point End Pass type
(mag) Time Alt. Az. Time Alt. Az. Time Alt. Az.
16 Jan 10.5 02:08:49 24° SE 02:08:49 24° SE 02:17:27 10° E visible
16 Jan 9.9 04:12:44 34° SSW 04:17:10 41° S 04:33:28 10° ESE visible
16 Jan 10.6 06:16:46 10° WSW 06:30:14 39° SSW 06:47:04 10° SE visible
17 Jan 10.1 02:55:45 34° SSE 02:55:45 34° SSE 03:08:38 10° ESE visible
17 Jan 10.0 04:59:38 26° SW 05:06:57 41° S 05:23:38 10° ESE visible
17 Jan 10.8 07:06:56 10° WSW 07:20:04 32° SSW 07:35:38 10° SSE visible
18 Jan 10.7 01:38:44 18° ESE 01:38:44 18° ESE 01:43:15 10° ESE visible
18 Jan 9.8 03:42:38 38° S 03:44:08 39° S 03:59:19 10° ESE visible
18 Jan 10.3 05:46:33 16° WSW 05:56:50 37° SSW 06:13:09 10° SE visible
19 Jan 10.3 02:25:38 28° SE 02:25:38 28° SE 02:34:27 10° ESE visible
19 Jan 9.8 04:29:32 32° SW 04:33:49 39° S 04:49:31 10° ESE visible
19 Jan 10.6 06:34:39 10° WSW 06:46:39 30° SSW 07:01:44 10° SSE visible
20 Jan 11.0 01:08:37 11° ESE 01:08:37 11° ESE 01:09:08 10° ESE visible
20 Jan 9.9 03:12:32 35° SSE 03:12:32 35° SSE 03:25:06 10° ESE visible
20 Jan 10.1 05:16:27 22° SW 05:23:37 35° SSW 05:39:03 10° SE visible
21 Jan 10.6 01:55:32 20° ESE 01:55:32 20° ESE 02:00:18 10° ESE visible
21 Jan 9.8 03:59:26 35° SSW 04:00:53 36° S 04:15:17 10° SE visible
21 Jan 10.4 06:03:21 12° WSW 06:13:25 28° SSW 06:27:36 10° SSE visible
22 Jan 10.2 02:42:27 28° SE 02:42:27 28° SE 02:50:55 10° ESE visible
22 Jan 9.9 04:46:22 27° SW 04:50:36 32° SSW 05:04:48 10° SE visible
22 Jan 10.7 06:53:35 10° WSW 07:03:04 20° SSW 07:14:33 10° S visible
23 Jan 10.9 01:25:28 12° ESE 01:25:28 12° ESE 01:26:16 10° ESE visible
23 Jan 9.9 03:29:23 33° S 03:29:23 33° S 03:41:02 10° SE visible
23 Jan 10.2 05:33:18 17° WSW 05:40:20 26° SSW 05:53:18 10° SSE visible
24 Jan 10.5 02:12:26 19° SE 02:12:26 19° SE 02:16:48 10° ESE visible
24 Jan 9.9 04:16:22 29° SSW 04:17:46 30° S 04:30:29 10° SE visible
24 Jan 10.6 06:21:49 10° WSW 06:30:00 18° SSW 06:40:03 10° S visible
25 Jan 10.2 02:59:25 25° SSE 02:59:25 25° SSE 03:06:49 10° SE visible
25 Jan 10.1 05:03:20 20° SW 05:07:27 23° SSW 05:18:52 10° SSE visible
